TimeEST,TemperatureF,Dew PointF,Humidity,Sea Level PressureIn,VisibilityMPH,Wind Direction,Wind SpeedMPH,Gust SpeedMPH,PrecipitationIn,Events,Conditions,WindDirDegrees,DateUTC
12:15 AM,61.7,53.2,74,29.64,10.0,South,15.0,20.7,N/A,,Clear,170,2013-01-30 05:15:00
12:35 AM,62.4,53.6,73,29.63,10.0,South,16.1,19.6,N/A,,Clear,170,2013-01-30 05:35:00
12:55 AM,62.6,53.6,72,29.62,10.0,South,15.0,20.7,N/A,,Clear,170,2013-01-30 05:55:00
1:15 AM,62.6,53.4,72,29.61,10.0,South,15.0,-,N/A,,Clear,170,2013-01-30 06:15:00
1:35 AM,62.2,53.1,72,29.59,10.0,South,15.0,-,N/A,,Clear,170,2013-01-30 06:35:00
1:55 AM,62.1,52.7,71,29.57,10.0,South,16.1,21.9,N/A,,Clear,170,2013-01-30 06:55:00
2:15 AM,62.1,52.5,71,29.57,10.0,South,16.1,23.0,N/A,,Clear,170,2013-01-30 07:15:00
2:35 AM,62.2,52.3,70,29.55,10.0,South,19.6,24.2,N/A,,Clear,170,2013-01-30 07:35:00
2:55 AM,62.6,52.2,69,29.53,10.0,South,20.7,29.9,N/A,,Clear,170,2013-01-30 07:55:00
3:15 AM,62.8,52.0,68,29.52,10.0,South,23.0,31.1,N/A,,Clear,170,2013-01-30 08:15:00
3:35 AM,63.0,51.6,66,29.51,10.0,South,19.6,27.6,N/A,,Clear,170,2013-01-30 08:35:00
3:55 AM,62.8,51.3,66,29.49,10.0,South,18.4,26.5,N/A,,Clear,170,2013-01-30 08:55:00
4:15 AM,62.8,51.1,66,29.48,10.0,South,21.9,28.8,N/A,,Clear,170,2013-01-30 09:15:00
4:35 AM,63.5,51.1,64,29.47,10.0,South,21.9,29.9,N/A,,Mostly Cloudy,170,2013-01-30 09:35:00
4:55 AM,63.7,51.3,64,29.46,10.0,South,24.2,28.8,N/A,,Mostly Cloudy,170,2013-01-30 09:55:00
5:15 AM,64.0,51.6,64,29.43,10.0,SSE,21.9,32.2,N/A,,Mostly Cloudy,160,2013-01-30 10:15:00
5:35 AM,64.6,51.6,63,29.41,10.0,South,25.3,31.1,N/A,,Mostly Cloudy,170,2013-01-30 10:35:00
5:55 AM,64.6,51.6,63,29.39,10.0,SSE,25.3,32.2,N/A,,Scattered Clouds,160,2013-01-30 10:55:00
6:15 AM,64.8,51.8,63,29.39,10.0,South,20.7,29.9,N/A,,Mostly Cloudy,170,2013-01-30 11:15:00
6:35 AM,64.8,52.2,64,29.36,10.0,South,24.2,29.9,N/A,Rain,Light Rain,170,2013-01-30 11:35:00
6:55 AM,65.1,52.3,63,29.34,10.0,South,26.5,35.7,N/A,Rain,Light Rain,170,2013-01-30 11:55:00
7:15 AM,65.7,52.7,63,29.40,10.0,SSW,26.5,41.4,N/A,Rain,Rain,200,2013-01-30 12:15:00
7:35 AM,61.3,54.5,78,29.48,3.0,WSW,19.6,31.1,N/A,Rain,Rain,240,2013-01-30 12:35:00
7:55 AM,57.4,52.7,84,29.50,7.0,WNW,17.3,25.3,N/A,Rain,Light Rain,290,2013-01-30 12:55:00
8:15 AM,57.4,51.3,80,29.51,10.0,WNW,8.1,-,N/A,Rain,Light Rain,290,2013-01-30 13:15:00
8:35 AM,55.9,50.5,82,29.53,5.0,West,4.6,-,N/A,Rain,Rain,270,2013-01-30 13:35:00
8:55 AM,53.8,49.5,85,29.50,3.0,Calm,Calm,-,N/A,Rain,Rain,0,2013-01-30 13:55:00
9:15 AM,52.0,48.0,86,29.50,10.0,SSE,8.1,-,N/A,Rain,Light Rain,150,2013-01-30 14:15:00
9:35 AM,50.2,46.8,88,29.49,10.0,South,10.4,17.3,N/A,Rain,Rain,170,2013-01-30 14:35:00
9:55 AM,51.8,47.5,85,29.50,10.0,South,13.8,-,N/A,Rain,Rain,170,2013-01-30 14:55:00
10:15 AM,54.1,49.3,84,29.47,10.0,South,13.8,20.7,N/A,Rain,Light Rain,180,2013-01-30 15:15:00
10:35 AM,55.2,49.8,82,29.45,10.0,South,16.1,-,N/A,Rain,Light Rain,180,2013-01-30 15:35:00
10:55 AM,55.8,50.0,81,29.45,10.0,South,16.1,23.0,N/A,,Overcast,180,2013-01-30 15:55:00
11:15 AM,56.5,50.2,79,29.45,10.0,South,19.6,28.8,N/A,Rain,Light Rain,170,2013-01-30 16:15:00
11:35 AM,56.3,50.0,79,29.42,10.0,South,19.6,26.5,N/A,Rain,Light Rain,170,2013-01-30 16:35:00
11:55 AM,56.7,50.0,78,29.38,10.0,South,20.7,28.8,N/A,Rain,Light Rain,170,2013-01-30 16:55:00
12:15 PM,57.4,50.0,76,29.39,10.0,South,23.0,32.2,N/A,,Overcast,170,2013-01-30 17:15:00
12:35 PM,57.4,50.0,76,29.38,10.0,South,23.0,35.7,N/A,,Overcast,180,2013-01-30 17:35:00
12:55 PM,57.7,50.0,75,29.40,10.0,SSW,19.6,25.3,N/A,,Overcast,200,2013-01-30 17:55:00
1:15 PM,57.4,50.2,77,29.40,10.0,South,21.9,27.6,N/A,,Light Drizzle,190,2013-01-30 18:15:00
1:35 PM,57.2,50.4,78,29.38,10.0,SSW,18.4,25.3,N/A,,Overcast,210,2013-01-30 18:35:00
1:55 PM,57.2,50.4,78,29.39,10.0,SSW,15.0,-,N/A,,Overcast,210,2013-01-30 18:55:00
2:15 PM,57.0,50.4,78,29.36,10.0,South,17.3,21.9,N/A,,Overcast,190,2013-01-30 19:15:00
2:35 PM,57.0,50.4,78,29.38,10.0,SSW,15.0,-,N/A,,Overcast,210,2013-01-30 19:35:00
2:55 PM,57.0,50.4,78,29.34,10.0,South,11.5,18.4,N/A,,Overcast,180,2013-01-30 19:55:00
3:15 PM,56.7,50.4,79,29.35,10.0,South,13.8,-,N/A,,Overcast,190,2013-01-30 20:15:00
3:35 PM,56.8,50.4,79,29.33,10.0,South,11.5,17.3,N/A,,Overcast,190,2013-01-30 20:35:00
3:55 PM,57.0,50.7,79,29.34,10.0,South,12.7,20.7,N/A,,Overcast,180,2013-01-30 20:55:00
4:15 PM,57.2,50.9,79,29.32,10.0,South,13.8,-,N/A,,Mostly Cloudy,190,2013-01-30 21:15:00
4:35 PM,57.2,50.9,79,29.33,10.0,South,17.3,20.7,N/A,,Overcast,190,2013-01-30 21:35:00
4:55 PM,56.8,50.7,80,29.31,10.0,SSW,13.8,-,N/A,,Mostly Cloudy,200,2013-01-30 21:55:00
5:15 PM,56.7,50.4,79,29.31,10.0,SSW,20.7,24.2,N/A,,Mostly Cloudy,200,2013-01-30 22:15:00
5:35 PM,57.0,49.5,76,29.29,10.0,South,19.6,24.2,N/A,,Mostly Cloudy,190,2013-01-30 22:35:00
5:55 PM,57.0,47.7,71,29.30,10.0,South,21.9,35.7,N/A,,Mostly Cloudy,190,2013-01-30 22:55:00
6:15 PM,56.5,46.4,69,29.30,10.0,SSW,26.5,31.1,N/A,,Overcast,200,2013-01-30 23:15:00
6:35 PM,55.9,45.9,69,29.29,10.0,SSW,20.7,28.8,N/A,,Overcast,210,2013-01-30 23:35:00
6:55 PM,55.4,45.9,70,29.28,10.0,SSW,19.6,25.3,N/A,,Overcast,200,2013-01-30 23:55:00
7:15 PM,54.9,45.9,72,29.28,10.0,South,16.1,24.2,N/A,,Mostly Cloudy,190,2013-01-31 00:15:00
7:35 PM,54.5,45.5,72,29.27,10.0,SSW,17.3,23.0,N/A,,Clear,200,2013-01-31 00:35:00
7:55 PM,54.0,45.1,72,29.26,10.0,SSW,17.3,24.2,N/A,,Clear,200,2013-01-31 00:55:00
8:15 PM,53.8,45.0,72,29.25,10.0,SSW,17.3,-,N/A,,Scattered Clouds,200,2013-01-31 01:15:00
8:35 PM,52.7,43.7,71,29.30,7.0,WNW,26.5,44.9,N/A,Rain,Rain,290,2013-01-31 01:35:00
8:55 PM,44.6,38.5,79,29.33,5.0,West,18.4,31.1,N/A,Rain,Light Rain,280,2013-01-31 01:55:00
9:15 PM,42.3,36.7,81,29.36,10.0,WNW,20.7,26.5,N/A,Rain,Light Rain,290,2013-01-31 02:15:00
9:35 PM,40.5,34.9,80,29.36,10.0,West,19.6,25.3,N/A,Rain,Light Rain,270,2013-01-31 02:35:00
9:55 PM,40.3,34.3,79,29.37,10.0,West,12.7,20.7,N/A,Rain,Light Rain,270,2013-01-31 02:55:00
10:15 PM,40.5,34.3,79,29.37,10.0,West,20.7,26.5,N/A,,Overcast,260,2013-01-31 03:15:00
10:35 PM,40.3,32.9,75,29.41,10.0,West,29.9,39.1,N/A,,Overcast,260,2013-01-31 03:35:00
10:55 PM,38.5,32.0,78,29.44,1.8,West,27.6,35.7,N/A,,Unknown,260,2013-01-31 03:55:00
11:15 PM,36.0,31.3,83,29.45,7.0,West,21.9,38.0,N/A,Snow,Light Snow,270,2013-01-31 04:15:00
11:35 PM,36.5,28.8,74,29.46,10.0,West,24.2,40.3,N/A,,Overcast,260,2013-01-31 04:35:00
11:55 PM,36.5,28.0,71,29.46,10.0,West,21.9,32.2,N/A,,Overcast,260,2013-01-31 04:55:00